Home   Weather   Clovis   Past weeks

Flag for USA Past Weather in Clovis, New Mexico, USA — Yesterday and Last 2 Weeks

Now
44 °F

Sunny.


Feels Like: 37 °F
Forecast: 31 / 60 °F
Wind: 15 mph from Northwest

Location: Cannon Air Force Base / Clovis

Current Time: Apr 30, 2017 at 11:12:33 am

Latest Report: Apr 30, 2017 at 9:58 am


Visibility: 10 mi

Pressure: 29.96 "Hg (25.57 "Hg at 1300m altitude)

Humidity: 57%

Dew Point: 30 °F

Location of ClovisLocation

Past Weather in Clovis — Graph

°F

Clovis Temperature Yesterday

Maximum temperature yesterday: 46 °F (at 12:58 am)
Minimum temperature yesterday: 32 °F (at 7:23 am)
Average temperature yesterday: 36 °F

High & Low Weather Summary for the Past Weeks

 TemperatureHumidityPressure
High88 °F (Apr 24, 2:58 pm)100% (Apr 16, 12:58 am)30.26 "Hg (Apr 16, 12:58 am)
Low32 °F (Apr 29, 7:23 am)6% (Apr 24, 3:58 pm)29.29 "Hg (Apr 27, 4:33 pm)
Average58 °F57%29.80 "Hg
* Reported Apr 15 9:58 am — Apr 30 9:58 am, Clovis, Weather by CustomWeather, © 2017

Note: Actual official high and low records may vary slightly from our data, if they occured in-between our weather recording intervals... More about our weather records

Advertising

Clovis Weather History for the Previous 24 Hours

Scroll right to see more
 ConditionsComfort  
Time TempWeatherWind HumidityBarometerVisibility
9:58 am
Sun, Apr 30
44 °FSunny.15 mph57%29.96 "Hg10 mi
9:13 am43 °FScattered clouds.18 mph71%29.96 "Hg10 mi
8:58 am41 °FPartly sunny.20 mph77%29.96 "Hg10 mi
7:58 am36 °FOvercast.17 mph100%29.96 "Hg10 mi
7:23 am34 °FScattered clouds.15 mph100%29.95 "Hg10 mi
6:58 am34 °FBroken clouds.18 mph100%29.94 "Hg10 mi
6:13 am34 °FScattered clouds.21 mph100%29.94 "Hg10 mi
5:58 am35 °FMostly cloudy.21 mph99%29.95 "Hg10 mi
4:58 am35 °FOvercast.21 mph92%29.96 "Hg10 mi
3:58 am34 °FMostly cloudy.22 mph99%29.96 "Hg10 mi
3:23 am34 °FPartly cloudy.23 mph100%29.94 "Hg10 mi
2:58 am33 °FOvercast.25 mph100%29.95 "Hg10 mi
2:03 am32 °FPassing clouds.17 mph100%29.98 "Hg10 mi
1:23 am32 °FLight rain. Passing clouds.20 mph100%29.99 "Hg10 mi
1:03 am32 °FLight rain. Mostly cloudy.18 mph100%30.00 "Hg9 mi
12:28 am32 °FLight rain. Passing clouds.18 mph100%30.00 "Hg9 mi
12:03 am32 °FLight rain. Passing clouds.18 mph100%30.00 "Hg10 mi
11:58 pm
Sat, Apr 29
33 °FLight rain. Passing clouds.21 mph100%30.01 "Hg10 mi
11:13 pm32 °FLight rain. Passing clouds.23 mph100%30.02 "Hg10 mi
10:58 pm33 °FLight rain. Passing clouds.23 mph100%30.02 "Hg10 mi
10:33 pm32 °FPassing clouds.22 mph100%30.02 "Hg10 mi
10:18 pm32 °FPassing clouds.21 mph100%30.03 "Hg10 mi
9:58 pm33 °FPartly cloudy.22 mph100%30.02 "Hg10 mi
9:23 pm32 °FLight rain. Partly cloudy.21 mph100%30.01 "Hg10 mi
9:03 pm32 °FLight rain. Mostly cloudy.23 mph100%30.01 "Hg10 mi
8:58 pm34 °FMostly cloudy.23 mph100%30.00 "Hg10 mi
8:28 pm34 °FLight rain. Mostly cloudy.25 mph100%30.00 "Hg10 mi
8:18 pm32 °FLight rain. Mostly cloudy.18 mph100%30.00 "Hg10 mi
7:58 pm33 °FLight snow. Overcast.23 mph100%29.98 "Hg10 mi
7:35 pm32 °FLight snow. Ice fog.15 mph100%29.98 "Hg6 mi
7:25 pm32 °FLight snow. Ice fog.17 mph100%29.98 "Hg5 mi
7:08 pm32 °FLight snow. Ice fog.17 mph100%29.97 "Hg3 mi
6:48 pm32 °FLight snow. Ice fog.20 mph100%29.96 "Hg2 mi
5:58 pm33 °FLight snow. Fog.24 mph100%29.93 "Hg1 mi
5:18 pm32 °FLight snow. Ice fog.18 mph100%29.92 "Hg1 mi
4:58 pm34 °FLight snow. Fog.22 mph100%29.91 "Hg1 mi
4:33 pm36 °FLight snow. Fog.22 mph100%29.88 "Hg2 mi
4:23 pm36 °FLight snow. Fog.21 mph100%29.89 "Hg3 mi
3:58 pm37 °FLight snow. Mostly cloudy.18 mph100%29.88 "Hg10 mi
3:43 pm37 °FLight snow. More clouds than sun.15 mph100%29.87 "Hg10 mi
3:33 pm37 °FLight snow. More clouds than sun.20 mph100%29.85 "Hg9 mi
2:58 pm39 °FOvercast.26 mph97%29.82 "Hg10 mi
2:38 pm39 °FOvercast.21 mph100%29.83 "Hg10 mi
12:58 pm38 °FOvercast.23 mph100%29.84 "Hg10 mi
11:58 am37 °FLow clouds.22 mph100%29.81 "Hg10 mi
Weather by CustomWeather, © 2017

See weather overviewHow to use our weather pages